Flag for Romania Weather past 2 weeks in Târgu Mureş, Romania

Now
48 °F

Sunny.


Feels Like: 46 °F
Forecast: 46 / 58 °F
Wind: 5 mph from East

Location: Tirgu Mures Airport

Current Time: Mar 27, 2015 at 9:11:07 AM

Latest Report: Mar 27, 2015 at 8:30 AM


Visibility: 10 mi

Pressure: 29.74 "Hg

Humidity: 76%

Dew point: 41 °F

Location of Târgu MureşLocation

Historic Weather in Târgu Mureş — Graph

°F

Târgu Mureş temperature yesterday

Maximum temperature yesterday: 72 °F (at 3:00 PM)
Minimum temperature yesterday: 37 °F (at 6:30 AM)
Average temperature yesterday: 57 °F

Past Weeks' High & Low Weather Summary

 TemperatureHumidityPressure
High72 °F (Mar 26, 3:00 PM)100% (Mar 13, 4:00 AM)30.63 "Hg (Mar 13, 4:00 AM)
Low21 °F (Mar 18, 5:00 AM)0% (Mar 21, 4:00 PM)29.74 "Hg (Mar 27, 6:30 AM)
Average44 °F64%30.16 "Hg
* Reported Mar 12 8:00 AM — Mar 27 8:00 AM, Târgu Mureş, Weather by CustomWeather, © 2015

Note: Actual official high and low records may vary slightly from our data, if they occured in-between our weather recording intervals... More about our weather records

Advertising

Târgu Mureş weather history for previous 24 hours

 ConditionsComfort  
Time TempWeatherWind HumidityBarometerVisibility
8:00 AM
Fri, Mar 27
46 °FSunny.5 mph82%29.74 "Hg10 mi
7:30 AM46 °FSunny.7 mph82%29.74 "Hg10 mi
7:00 AM45 °FSunny.5 mph81%29.74 "Hg10 mi
6:30 AM45 °FSunny.6 mph81%29.74 "Hg10 mi
5:30 AM45 °FClear.7 mph81%29.77 "Hg10 mi
5:00 AM43 °FClear.7 mph87%29.77 "Hg10 mi
4:00 AM45 °FClear.5 mph81%29.77 "Hg10 mi
3:00 AM46 °FClear.5 mph76%29.80 "Hg10 mi
2:00 AM46 °FClear.5 mph76%29.80 "Hg10 mi
1:00 AM46 °FClear.5 mph76%29.83 "Hg10 mi
12:00 AM48 °FClear.9 mph76%29.83 "Hg10 mi
11:00 PM
Thu, Mar 26
48 °FClear.1 mph71%29.83 "Hg10 mi
10:00 PM52 °FClear.2 mph62%29.83 "Hg10 mi
9:00 PM50 °FClear.2 mph71%29.83 "Hg10 mi
8:30 PM52 °FClear.2 mph67%29.80 "Hg10 mi
8:00 PM55 °FClear.3 mph55%29.80 "Hg10 mi
7:30 PM59 °FClear.3 mph51%29.80 "Hg10 mi
7:00 PM57 °FClear.5 mph55%29.80 "Hg10 mi
6:30 PM66 °FSunny.6 mph40%29.80 "Hg10 mi
6:00 PM68 °FPassing clouds.3 mph35%29.80 "HgN/A
5:30 PM70 °FPassing clouds.3 mph33%29.80 "HgN/A
5:00 PM72 °FPassing clouds.3 mph33%29.83 "HgN/A
4:30 PM72 °FSunny.5 mph31%29.83 "Hg10 mi
4:00 PM72 °FSunny.2 mph31%29.83 "Hg10 mi
3:30 PM72 °FSunny.3 mph31%29.86 "Hg10 mi
3:00 PM72 °FPassing clouds.8 mph31%29.86 "HgN/A
2:30 PM70 °FSunny.3 mph35%29.86 "Hg10 mi
2:00 PM70 °FSunny.3 mph33%29.89 "Hg10 mi
1:30 PM70 °FSunny.5 mph33%29.89 "Hg10 mi
1:00 PM68 °FSunny.3 mph38%29.92 "Hg10 mi
12:30 PM66 °FPassing clouds.5 mph40%29.92 "HgN/A
12:00 PM64 °FPassing clouds.6 mph40%29.92 "HgN/A
11:30 AM64 °FSunny.3 mph37%29.92 "Hg10 mi
11:00 AM63 °FPassing clouds.5 mph42%29.92 "HgN/A
10:30 AM61 °FPassing clouds.5 mph45%29.95 "HgN/A
10:00 AM59 °FSunny.5 mph48%29.95 "Hg10 mi
9:30 AM57 °FPassing clouds.6 mph51%29.95 "HgN/A
9:00 AM54 °FSunny.7 mph63%29.95 "Hg10 mi
Weather by CustomWeather, © 2015

See weather overviewHow to use our weather pages